Wrangell, AK

3:38 PM AKDT on June 28, 2017 (GMT -0800)
Wrangell

Weather History for PAWG - February, 2014

Change the Weather History Date:

Thursday, February 13, 2014

  Actual Average Record
Temperature  
Mean Temperature 26 °F -  
Max Temperature 37 °F 36 °F 53 °F (2004)
Min Temperature 17 °F 25 °F 1 °F (1975)
Degree Days  
Heating Degree Days 39    
Moisture  
Dew Point 20 °F    
Average Humidity 72    
Maximum Humidity 87    
Minimum Humidity 63    
Precipitation  
Precipitation 0.07 in - - ()
Sea Level Pressure  
Sea Level Pressure 29.41 in    
Wind  
Wind Speed 6 mph (East)    
Max Wind Speed 22 mph    
Max Gust Speed 31 mph    
Visibility 9 miles    
Events Snow    
Averages and records for this station are not official NWS values.
T = Trace of Precipitation, MM = Missing Value Source: NWS Daily Summary

Daily Weather History Graph

Daily Weather History Graph

Search for Another Location

Airport or City:

Trip Planner

Search our weather history database for the weather conditions in past years. The results will help you decide how hot, cold, wet, or windy it might be!

Date:

Astronomy

Feb. 13, 2014 Rise Set
Actual Time 7:20 AM AKST 4:48 PM AKST
Civil Twilight 6:40 AM AKST 5:27 PM AKST
Nautical Twilight 5:56 AM AKST 6:11 PM AKST
Astronomical Twilight 5:13 AM AKST 6:55 PM AKST
Moon 4:04 PM AKST (2/13) 6:19 AM AKST (2/13)
Length of Visible Light 10h 47m
Length of Day
9h 27m
Waxing Gibbous, 99% of the Moon is Illuminated
Feb 13
Waxing Gibbous
Feb 14
Full
Feb 22
Last Quarter
Feb 28
New
Mar 8
First Quarter

Hourly Weather History & Observations

Time (AKST) Temp. Windchill Dew Point Humidity Pressure Visibility Wind Dir Wind Speed Gust Speed Precip Events Conditions
12:16 AM 21.2 °F - 14.0 °F 74% 29.45 in 10.0 mi Calm Calm - N/A   Clear
12:36 AM 21.2 °F 16.4 °F 12.2 °F 68% 29.44 in 10.0 mi SW 3.5 mph - N/A   Clear
12:56 AM 21.2 °F - 12.2 °F 68% 29.44 in 10.0 mi Calm Calm - N/A   Clear
1:16 AM 21.2 °F - 12.2 °F 68% 29.43 in 10.0 mi Calm Calm - N/A   Clear
1:36 AM 21.2 °F - 12.2 °F 68% 29.43 in 10.0 mi Calm Calm - N/A   Clear
1:56 AM 21.2 °F 13.6 °F 14.0 °F 74% 29.42 in 10.0 mi NNW 5.8 mph - N/A   Clear
2:16 AM 17.6 °F 12.3 °F 8.6 °F 68% 29.42 in 10.0 mi South 3.5 mph - N/A   Clear
2:36 AM 19.4 °F 12.8 °F 12.2 °F 74% 29.41 in 10.0 mi SSE 4.6 mph - N/A   Clear
2:56 AM 19.4 °F 11.5 °F 12.2 °F 74% 29.40 in 10.0 mi SSE 5.8 mph - N/A   Clear
3:16 AM 19.4 °F 12.8 °F 12.2 °F 74% 29.40 in 10.0 mi SSE 4.6 mph - N/A   Clear
3:36 AM 19.4 °F 12.8 °F 10.4 °F 68% 29.40 in 10.0 mi SSE 4.6 mph - N/A   Clear
3:56 AM 19.4 °F - 12.2 °F 74% 29.40 in 10.0 mi Calm Calm - N/A   Clear
4:16 AM 19.4 °F 9.5 °F 12.2 °F 74% 29.40 in 10.0 mi NNW 8.1 mph - N/A   Clear
4:36 AM 19.4 °F 10.4 °F 12.2 °F 74% 29.40 in 10.0 mi NNW 6.9 mph - N/A   Clear
4:56 AM 21.2 °F 13.6 °F 12.2 °F 68% 29.40 in 10.0 mi North 5.8 mph - N/A   Clear
5:16 AM 17.6 °F 10.7 °F 8.6 °F 68% 29.40 in 10.0 mi South 4.6 mph - N/A   Clear
5:36 AM 21.2 °F 14.9 °F 12.2 °F 68% 29.41 in 10.0 mi West 4.6 mph - N/A   Clear
5:56 AM 21.2 °F 14.9 °F 12.2 °F 68% 29.41 in 10.0 mi NNW 4.6 mph - N/A   Clear
6:16 AM 21.2 °F 12.6 °F 12.2 °F 68% 29.41 in 10.0 mi North 6.9 mph - N/A   Clear
6:36 AM 21.2 °F - 12.2 °F 68% 29.42 in 10.0 mi Calm Calm - N/A   Clear
6:56 AM 21.2 °F - 10.4 °F 63% 29.43 in 10.0 mi Calm Calm - N/A   Clear
7:16 AM 19.4 °F 14.3 °F 10.4 °F 68% 29.44 in 10.0 mi NW 3.5 mph - N/A   Clear
7:36 AM 21.2 °F 16.4 °F 10.4 °F 63% 29.44 in 10.0 mi North 3.5 mph - N/A   Clear
7:56 AM 21.2 °F 13.6 °F 12.2 °F 68% 29.44 in 10.0 mi North 5.8 mph - N/A   Clear
8:16 AM 21.2 °F 14.9 °F 10.4 °F 63% 29.45 in 10.0 mi West 4.6 mph - N/A   Clear
8:36 AM 21.2 °F 16.4 °F 12.2 °F 68% 29.46 in 10.0 mi NW 3.5 mph - N/A   Clear
8:56 AM 21.2 °F 14.9 °F 12.2 °F 68% 29.46 in 10.0 mi NNW 4.6 mph - N/A   Clear
9:16 AM 23.0 °F 15.8 °F 12.2 °F 63% 29.46 in 10.0 mi NE 5.8 mph - N/A   Overcast
9:36 AM 23.0 °F - 12.2 °F 63% 29.48 in 10.0 mi Calm Calm - N/A   Overcast
9:56 AM 24.8 °F 15.3 °F 14.0 °F 64% 29.47 in 10.0 mi East 9.2 mph - N/A   Overcast
10:36 AM 28.4 °F 18.0 °F 17.6 °F 64% 29.47 in 10.0 mi East 12.7 mph 16.1 mph N/A   Overcast
10:56 AM 28.4 °F 18.5 °F 17.6 °F 64% 29.47 in 10.0 mi ESE 11.5 mph - N/A   Overcast
11:16 AM 30.2 °F 18.9 °F 19.4 °F 64% 29.46 in 10.0 mi East 16.1 mph 21.9 mph N/A   Overcast
11:36 AM 30.2 °F 18.9 °F 19.4 °F 64% 29.46 in 10.0 mi East 16.1 mph - N/A   Overcast
11:56 AM 30.2 °F 21.9 °F 19.4 °F 64% 29.47 in 10.0 mi East 9.2 mph - N/A   Overcast
12:16 PM 30.2 °F 21.3 °F 19.4 °F 64% 29.46 in 5.0 mi East 10.4 mph 18.4 mph N/A   Overcast
12:20 PM 30.2 °F 20.2 °F 21.2 °F 69% 29.47 in 2.0 mi NE 12.7 mph - N/A Snow Snow
12:36 PM 30.2 °F 20.8 °F 21.2 °F 69% 29.46 in 2.0 mi East 11.5 mph 20.7 mph N/A   Overcast
12:56 PM 30.2 °F 22.6 °F 21.2 °F 69% 29.47 in 5.0 mi East 8.1 mph 18.4 mph N/A   Overcast
1:16 PM 30.2 °F 24.3 °F 23.0 °F 75% 29.47 in 5.0 mi SW 5.8 mph - N/A   Overcast
1:36 PM 30.2 °F 23.4 °F 24.8 °F 80% 29.46 in 5.0 mi West 6.9 mph - N/A   Overcast
1:56 PM 33.8 °F 23.5 °F 24.8 °F 70% 29.45 in 5.0 mi ESE 16.1 mph 23.0 mph N/A   Overcast
2:16 PM 33.8 °F 23.5 °F 26.6 °F 75% 29.44 in 5.0 mi East 16.1 mph 23.0 mph N/A   Overcast
2:36 PM 33.8 °F 24.3 °F 26.6 °F 75% 29.45 in 5.0 mi East 13.8 mph 28.8 mph N/A   Overcast
2:56 PM 32.0 °F 22.5 °F 26.6 °F 80% 29.44 in 5.0 mi East 12.7 mph 21.9 mph N/A   Overcast
3:16 PM 32.0 °F 21.2 °F 26.6 °F 80% 29.44 in 5.0 mi East 16.1 mph 21.9 mph N/A   Overcast
3:36 PM 35.6 °F 24.8 °F 26.6 °F 70% 29.43 in 5.0 mi SE 19.6 mph 31.1 mph N/A   Overcast
3:56 PM 35.6 °F 24.2 °F 26.6 °F 70% 29.42 in 7.0 mi ESE 21.9 mph 27.6 mph N/A   Mostly Cloudy
4:16 PM 35.6 °F 25.2 °F 26.6 °F 70% 29.44 in 7.0 mi ESE 18.4 mph 25.3 mph N/A   Mostly Cloudy
4:36 PM 35.6 °F 25.2 °F 26.6 °F 70% 29.44 in 7.0 mi ESE 18.4 mph 24.2 mph N/A   Mostly Cloudy
4:56 PM 35.6 °F 25.5 °F 26.6 °F 70% 29.43 in 10.0 mi SE 17.3 mph 20.7 mph N/A   Mostly Cloudy
5:16 PM 35.6 °F 31.7 °F 26.6 °F 70% 29.44 in 10.0 mi SSW 4.6 mph 17.3 mph N/A   Mostly Cloudy
5:36 PM 35.6 °F 31.7 °F 28.4 °F 75% 29.43 in 10.0 mi SE 4.6 mph 18.4 mph N/A   Mostly Cloudy
5:56 PM 35.6 °F 27.1 °F 28.4 °F 75% 29.42 in 10.0 mi ESE 12.7 mph 16.1 mph N/A   Overcast
6:16 PM 35.6 °F 26.2 °F 28.4 °F 75% 29.42 in 10.0 mi ESE 15.0 mph 20.7 mph N/A   Overcast
6:36 PM 33.8 °F 23.2 °F 28.4 °F 81% 29.40 in 10.0 mi East 17.3 mph 20.7 mph N/A   Overcast
6:56 PM 35.6 °F 26.6 °F 30.2 °F 81% 29.40 in 10.0 mi East 13.8 mph - N/A   Overcast
7:16 PM 35.6 °F 28.6 °F 28.4 °F 75% 29.39 in 10.0 mi East 9.2 mph - N/A   Overcast
7:36 PM 35.6 °F 27.5 °F 30.2 °F 81% 29.37 in 10.0 mi East 11.5 mph 18.4 mph N/A   Overcast
7:56 PM 33.8 °F 24.8 °F 28.4 °F 81% 29.36 in 10.0 mi East 12.7 mph - N/A   Mostly Cloudy
8:16 PM 33.8 °F 25.3 °F 28.4 °F 81% 29.36 in 10.0 mi East 11.5 mph - N/A   Mostly Cloudy
8:36 PM 33.8 °F 27.7 °F 28.4 °F 81% 29.35 in 10.0 mi East 6.9 mph - 0.01 in   Mostly Cloudy
8:56 PM 33.8 °F 27.0 °F 30.2 °F 87% 29.33 in 8.0 mi East 8.1 mph - 0.02 in   Overcast
9:16 PM 30.2 °F 24.3 °F 24.8 °F 80% 29.31 in 8.0 mi NE 5.8 mph - N/A   Overcast
9:36 PM 30.2 °F 24.3 °F 26.6 °F 86% 29.30 in 8.0 mi North 5.8 mph - N/A   Overcast
9:56 PM 30.2 °F 25.4 °F 26.6 °F 86% 29.29 in 9.0 mi North 4.6 mph - 0.01 in   Overcast
10:16 PM 33.8 °F 25.8 °F 30.2 °F 87% 29.27 in 9.0 mi East 10.4 mph - 0.01 in   Overcast
10:36 PM 33.8 °F 25.3 °F 30.2 °F 87% 29.25 in 9.0 mi East 11.5 mph - 0.01 in   Overcast
10:56 PM 35.6 °F 27.1 °F 30.2 °F 81% 29.23 in 9.0 mi ENE 12.7 mph - 0.02 in   Overcast
11:16 PM 35.6 °F 26.6 °F 30.2 °F 81% 29.22 in 8.0 mi East 13.8 mph 18.4 mph 0.01 in   Overcast
11:56 PM 37.4 °F 27.5 °F 30.2 °F 75% 29.19 in 10.0 mi SE 18.4 mph 25.3 mph 0.02 in   Overcast